Location: Ammerl�gen
(47.2167°N, 9.6000°E)
Time: 10:51:55
(UTC+00:00)

CZ-4 R/B DEB - Pass Details

Date: 24 October 2021
Orbit: 738 x 791 km, 98.5° (Epoch: 26 November)

Event Time Altitude Azimuth Distance (km) Brightness Sun altitude
Exits shadow 17:17:06 14° 75° (ENE) 1,994 ? -10.7°
Maximum altitude 17:18:27 15° 57° (ENE) 1,911 ? -10.9°
Drops below altitude 10° 17:21:15 10° 22° (NNE) 2,261 ? -11.4°
Sets 17:24:25 0° 1° (N) 3,194 ? -11.9°
